Weather History for KWDG - October, 2012

Change the Weather History Date:

Friday, October 19, 2012

  Actual Average Record
Temperature  
Mean Temperature 60 °F -  
Max Temperature 75 °F 67 °F 86 °F (2003)
Min Temperature 44 °F 49 °F 30 °F (2013)
Degree Days  
Heating Degree Days 6    
Growing Degree Days 10 (Base 50)    
Moisture  
Dew Point 21 °F    
Average Humidity 29    
Maximum Humidity 55    
Minimum Humidity 12    
Precipitation  
Precipitation 0.00 in - - ()
Sea Level Pressure  
Sea Level Pressure 29.89 in    
Wind  
Wind Speed 12 mph (WNW)    
Max Wind Speed 24 mph    
Max Gust Speed 30 mph    
Visibility 10 miles    
Events      
Averages and records for this station are not official NWS values.
T = Trace of Precipitation, MM = Missing Value Source: NWS Daily Summary

Daily Weather History Graph

Daily Weather History Graph

Search for Another Location

Airport or City:

Trip Planner

Search our weather history database for the weather conditions in past years. The results will help you decide how hot, cold, wet, or windy it might be!

Date:

Astronomy

Oct. 19, 2012 Rise Set
Actual Time 7:42 AM CDT 6:49 PM CDT
Civil Twilight 7:16 AM CDT 7:15 PM CDT
Nautical Twilight 6:46 AM CDT 7:45 PM CDT
Astronomical Twilight 6:16 AM CDT 8:14 PM CDT
Moon 12:20 PM CDT (10/19) 10:34 PM CDT (10/19)
Length of Visible Light 11h 58m
Length of Day
11h 06m
Waxing Crescent, 24% of the Moon is Illuminated
Oct 19
Waxing Crescent
Oct 21
First Quarter
Oct 29
Full
Nov 6
Last Quarter
Nov 13
New

Hourly Weather History & Observations

Time (CDT) Temp. Windchill Dew Point Humidity Pressure Visibility Wind Dir Wind Speed Gust Speed Precip Events Conditions
1:15 AM 55.4 °F - 19.4 °F 25% 29.91 in 7.0 mi West 12.7 mph - N/A   Overcast
1:35 AM 55.4 °F - 19.4 °F 25% 29.91 in 7.0 mi WNW 13.8 mph - N/A   Overcast
1:55 AM 55.4 °F - 19.4 °F 25% 29.91 in 10.0 mi WNW 15.0 mph 21.9 mph N/A   Overcast
2:15 AM 55.4 °F - 17.6 °F 23% 29.91 in 10.0 mi WNW 15.0 mph 21.9 mph N/A   Overcast
2:35 AM 55.4 °F - 17.6 °F 23% 29.91 in 10.0 mi WNW 13.8 mph 21.9 mph N/A   Mostly Cloudy
2:55 AM 53.6 °F - 19.4 °F 26% 29.92 in 10.0 mi West 9.2 mph 17.3 mph N/A   Scattered Clouds
3:15 AM 48.2 °F - 19.4 °F 32% 29.92 in 10.0 mi West 8.1 mph - N/A   Clear
3:55 AM 44.6 °F 40.2 °F 19.4 °F 37% 29.92 in 10.0 mi West 8.1 mph - N/A   Clear
4:15 AM 50.0 °F - 19.4 °F 30% 29.92 in 10.0 mi WNW 12.7 mph - N/A   Clear
4:55 AM 48.2 °F - 19.4 °F 32% 29.92 in 10.0 mi WNW 12.7 mph - N/A   Clear
5:15 AM 48.2 °F - 19.4 °F 32% 29.92 in 10.0 mi WNW 13.8 mph 17.3 mph N/A   Clear
5:35 AM 50.0 °F - 17.6 °F 28% 29.92 in 10.0 mi WNW 16.1 mph 20.7 mph N/A   Clear
5:55 AM 50.0 °F - 17.6 °F 28% 29.93 in 10.0 mi WNW 16.1 mph - N/A   Clear
6:15 AM 51.8 °F - 15.8 °F 24% 29.93 in 10.0 mi WNW 15.0 mph 24.2 mph N/A   Clear
6:50 AM 50.0 °F - 15.8 °F 26% 29.93 in 10.0 mi West 15.0 mph - N/A   Clear
7:50 AM 50.0 °F - 15.8 °F 26% 29.94 in 10.0 mi WNW 13.8 mph 19.6 mph N/A   Clear
8:50 AM 53.6 °F - 17.6 °F 24% 29.94 in 10.0 mi WNW 16.1 mph 23.0 mph N/A   Clear
9:50 AM 59.0 °F - 17.6 °F 20% 29.96 in 10.0 mi NW 19.6 mph 28.8 mph N/A   Clear
11:50 AM 64.4 °F - 23.0 °F 21% 29.98 in 10.0 mi NW 17.3 mph 24.2 mph N/A   Clear
11:55 AM 60.8 °F - 44.6 °F 55% 29.97 in 10.0 mi NNW 24.2 mph 29.9 mph N/A   Clear
12:50 PM 68.0 °F - 23.0 °F 18% 29.97 in 10.0 mi NW 18.4 mph 27.6 mph N/A   Clear
1:50 PM 69.8 °F - 21.2 °F 16% 29.93 in 10.0 mi NW 19.6 mph 26.5 mph N/A   Clear
3:50 PM 73.4 °F - 19.4 °F 13% 29.86 in 10.0 mi WNW 13.8 mph - N/A   Partly Cloudy
4:50 PM 75.2 °F - 19.4 °F 12% 29.85 in 10.0 mi NW 11.5 mph - N/A   Partly Cloudy
6:50 PM 66.2 °F - 19.4 °F 17% 29.83 in 10.0 mi ENE 5.8 mph - N/A   Scattered Clouds
7:50 PM 55.4 °F - 24.8 °F 31% 29.83 in 10.0 mi Calm Calm - N/A   Scattered Clouds
8:50 PM 53.6 °F - 21.2 °F 28% 29.83 in 10.0 mi East 5.8 mph - N/A   Clear
9:15 PM 51.8 °F - 23.0 °F 33% 29.84 in 10.0 mi Calm Calm - N/A   Clear
9:35 PM 51.8 °F - 23.0 °F 33% 29.84 in 10.0 mi Calm Calm - N/A   Clear
9:55 PM 50.0 °F - 24.8 °F 37% 29.84 in 10.0 mi Calm Calm - N/A   Clear
10:15 PM 48.2 °F - 24.8 °F 40% 29.84 in 10.0 mi Calm Calm - N/A   Clear
10:35 PM 48.2 °F - 24.8 °F 40% 29.84 in 10.0 mi Calm Calm - N/A   Clear
10:55 PM 50.0 °F - 23.0 °F 35% 29.83 in 10.0 mi Calm Calm - N/A   Clear
11:15 PM 46.4 °F 45.2 °F 23.0 °F 40% 29.83 in 10.0 mi ESE 3.5 mph - N/A   Clear
11:35 PM 46.4 °F 45.2 °F 23.0 °F 40% 29.83 in 10.0 mi East 3.5 mph - N/A   Clear
11:55 PM 46.4 °F - 24.8 °F 43% 29.84 in 10.0 mi Calm Calm - N/A   Clear